�������r�C�����j�^�v���󋵏��
Date,Time,5�C6���@���p�r�C��,����,����(m/s)
2022/03/26,00:00,4.1,��,9.2
2022/03/26,00:10,4.2,��,8.4
2022/03/26,00:20,3.9,��,8.4
2022/03/26,00:30,3.9,��,8.4
2022/03/26,00:40,4.0,��,8.4
2022/03/26,00:50,4.2,��,8.6
2022/03/26,01:00,4.1,��,8.1
2022/03/26,01:10,4.0,��,9.1
2022/03/26,01:20,3.9,��,9.3
2022/03/26,01:30,4.0,��,9.5
2022/03/26,01:40,3.9,��,8.4
2022/03/26,01:50,3.9,��,9.1
2022/03/26,02:00,3.9,��,8.3
2022/03/26,02:10,4.0,��,8.0
2022/03/26,02:20,4.0,��쓌,7.8
2022/03/26,02:30,4.1,��쓌,5.9
2022/03/26,02:40,4.1,��,8.3
2022/03/26,02:50,4.1,��,8.4
2022/03/26,03:00,3.9,��,7.0
2022/03/26,03:10,4.1,��,5.9
2022/03/26,03:20,3.9,��,6.3
2022/03/26,03:30,3.8,��,6.4
2022/03/26,03:40,4.1,��,5.6
2022/03/26,03:50,4.2,��,4.8
2022/03/26,04:00,3.9,��,7.0
2022/03/26,04:10,4.1,��,8.3
2022/03/26,04:20,3.9,��,5.5
2022/03/26,04:30,4.1,��,2.6
2022/03/26,04:40,4.0,��,1.9
2022/03/26,04:50,4.0,��쐼,1.2
2022/03/26,05:00,3.9,��쐼,3.7
2022/03/26,05:10,4.3,��,2.9
2022/03/26,05:20,3.9,��쓌,2.6
2022/03/26,05:30,4.0,��쓌,1.9
2022/03/26,05:40,4.0,��,4.6
2022/03/26,05:50,4.1,��,6.1
2022/03/26,06:00,3.9,��쓌,5.5
2022/03/26,06:10,3.9,��쓌,5.7
2022/03/26,06:20,4.1,��쓌,7.2
2022/03/26,06:30,3.9,��쓌,5.2
2022/03/26,06:40,3.9,��쓌,4.9
2022/03/26,06:50,4.1,�쓌,3.6
2022/03/26,07:00,3.8,��,7.2
2022/03/26,07:10,4.1,��,9.4
2022/03/26,07:20,4.0,��,11.9
2022/03/26,07:30,4.1,��,11.9
2022/03/26,07:40,4.0,��,12.1
2022/03/26,07:50,4.1,��,14.1
2022/03/26,08:00,3.9,��,13.2
2022/03/26,08:10,4.1,��,13.5
2022/03/26,08:20,3.9,��,15.3
2022/03/26,08:30,4.0,��,14.4
2022/03/26,08:40,4.0,��,12.2
2022/03/26,08:50,3.9,��,11.9
2022/03/26,09:00,4.1,��,10.8
2022/03/26,09:10,4.1,��,11.3
2022/03/26,09:20,4.3,��,11.4
2022/03/26,09:30,3.9,��,10.3
2022/03/26,09:40,4.0,��,9.2
2022/03/26,09:50,4.0,��,13.0
2022/03/26,10:00,4.1,��,12.4
2022/03/26,10:10,4.0,��,9.5
2022/03/26,10:20,4.0,��,9.8
2022/03/26,10:30,3.9,��쐼,8.9
2022/03/26,10:40,3.9,��,13.2
2022/03/26,10:50,3.9,��,13.0
2022/03/26,11:00,4.0,��,12.4
2022/03/26,11:10,4.0,��쓌,11.6
2022/03/26,11:20,4.0,��,13.1
2022/03/26,11:30,4.0,��,12.4
2022/03/26,11:40,4.1,��,11.3
2022/03/26,11:50,3.9,��,11.9
2022/03/26,12:00,4.1,��,10.5
2022/03/26,12:10,4.0,��,9.2
2022/03/26,12:20,4.0,��,10.2
2022/03/26,12:30,4.0,��,11.1
2022/03/26,12:40,4.0,��,13.5
2022/03/26,12:50,4.0,��,13.3
2022/03/26,13:00,3.9,��,12.7
2022/03/26,13:10,4.1,��,12.4
2022/03/26,13:20,3.9,��,12.1
2022/03/26,13:30,4.1,��,12.1
2022/03/26,13:40,4.0,��,13.6
2022/03/26,13:50,3.9,��,11.4
2022/03/26,14:00,4.1,��,12.1
2022/03/26,14:10,4.0,��,11.3
2022/03/26,14:20,4.1,��,13.3
2022/03/26,14:30,3.9,��,12.4
2022/03/26,14:40,4.1,��,14.9
2022/03/26,14:50,3.9,��,12.5
2022/03/26,15:00,4.0,��,11.6
2022/03/26,15:10,4.0,��,10.8
2022/03/26,15:20,4.0,��,13.0
2022/03/26,15:30,4.1,��쐼,12.2
2022/03/26,15:40,3.8,��,14.6
2022/03/26,15:50,4.0,��,12.8
2022/03/26,16:00,4.2,��,14.1
2022/03/26,16:10,4.1,��,13.2
2022/03/26,16:20,3.9,��,14.9
2022/03/26,16:30,4.2,��,14.1
2022/03/26,16:40,4.0,-,CALM
2022/03/26,16:50,4.1,��,12.2
2022/03/26,17:00,4.0,��,14.4
2022/03/26,17:10,3.9,��,14.1
2022/03/26,17:20,4.1,��,18.8
2022/03/26,17:30,3.9,-,CALM
2022/03/26,17:40,4.0,��,16.9
2022/03/26,17:50,4.1,��,14.9
2022/03/26,18:00,4.2,��쓌,12.7
2022/03/26,18:10,4.0,-,CALM
2022/03/26,18:20,4.1,��,15.7
2022/03/26,18:30,4.1,��,20.2
2022/03/26,18:40,4.1,-,CALM
2022/03/26,18:50,4.1,��,15.8
2022/03/26,19:00,4.1,��,11.4
2022/03/26,19:10,4.2,��,12.7
2022/03/26,19:20,4.0,��,13.0
2022/03/26,19:30,4.1,��,10.4
2022/03/26,19:40,4.0,��,12.2
2022/03/26,19:50,3.9,��,12.4
2022/03/26,20:00,4.0,��,12.4
2022/03/26,20:10,4.2,��,11.6
2022/03/26,20:20,4.1,��,11.6
2022/03/26,20:30,4.1,��,10.2
2022/03/26,20:40,4.0,��쓌,12.1
2022/03/26,20:50,4.0,��,10.0
2022/03/26,21:00,4.2,��,7.8
2022/03/26,21:10,4.0,��쓌,11.6
2022/03/26,21:20,4.0,��,11.9
2022/03/26,21:30,3.9,��,11.7
2022/03/26,21:40,4.0,��,13.9
2022/03/26,21:50,4.1,��,13.8
2022/03/26,22:00,3.9,��쐼,11.6
2022/03/26,22:10,4.0,��,16.0
2022/03/26,22:20,4.0,��,13.0
2022/03/26,22:30,4.0,��,13.6
2022/03/26,22:40,4.0,��,14.9
2022/03/26,22:50,4.0,��,14.4
2022/03/26,23:00,4.0,��,12.1
2022/03/26,23:10,3.9,��,13.1
2022/03/26,23:20,3.9,��,12.2
2022/03/26,23:30,4.1,��,11.3
2022/03/26,23:40,4.1,��,8.5
2022/03/26,23:50,4.0,��쓌,10.2
